Weather History for Lincoln, NE

Change the Weather History Date:

Thursday, June 19, 2014

  Actual Average Record
Temperature  
Mean Temperature 78 °F 74 °F  
Max Temperature 88 °F 86 °F 104 °F (1988)
Min Temperature 67 °F 62 °F 42 °F (1976)
Degree Days  
Heating Degree Days 0 0  
Month to date heating degree days 2 13  
Since 1 June heating degree days 2 13  
Since 1 July heating degree days 6484 6053  
Cooling Degree Days 13 9  
Month to date cooling degree days 154 127  
Year to date cooling degree days 314 206  
Since 1 June cooling degree days 154 127  
Growing Degree Days 29 (Base 50)    
Moisture  
Dew Point 64 °F    
Average Humidity 59    
Maximum Humidity 78    
Minimum Humidity 40    
Precipitation  
Precipitation 0.04 in 0.14 in 1.74 in (1905)
Month to date precipitation 3.28 2.78  
Year to date precipitation 13.03 13.12  
Snow  
Snow 0.00 in 0.00 in - ()
Month to date snowfall 0.0 0.0  
Since 1 July snowfall 18.2 25.9  
Snow Depth 0.00 in    
Sea Level Pressure  
Sea Level Pressure 29.86 in    
Wind  
Wind Speed 8 mph (NW)    
Max Wind Speed 25 mph    
Max Gust Speed 34 mph    
Visibility 10 miles    
Events Rain , Thunderstorm    
T = Trace of Precipitation, MM = Missing Value Source: NWS Daily Summary

Daily Weather History Graph

Daily Weather History Graph

Search for Another Location

Airport:

Trip Planner

Search our weather history database for the weather conditions in past years. The results will help you decide how hot, cold, wet, or windy it might be!

Date:

Astronomy

Jun. 19, 2014 Rise Set
Actual Time 5:55 AM CDT 9:01 PM CDT
Civil Twilight 5:21 AM CDT 9:35 PM CDT
Nautical Twilight 4:38 AM CDT 10:18 PM CDT
Astronomical Twilight 3:48 AM CDT 11:08 PM CDT
Moon 1:03 AM CDT (6/19) 1:29 PM CDT (6/19)
Length of Visible Light 16h 13m
Length of Day
15h 06m
Waning Gibbous, 51% of the Moon is Illuminated
Jun 19
Waning Gibbous
Jun 19
Last Quarter
Jun 27
New
Jul 5
First Quarter
Jul 12
Full

Hourly Weather History & Observations

Time (CDT) Temp. Heat Index Dew Point Humidity Pressure Visibility Wind Dir Wind Speed Gust Speed Precip Events Conditions
12:54 AM 82.0 °F 87.4 °F 73.0 °F 74% 29.75 in 10.0 mi South 16.1 mph - N/A   Clear
1:54 AM 81.0 °F 85.2 °F 72.0 °F 74% 29.72 in 10.0 mi SSE 12.7 mph - N/A   Clear
2:54 AM 80.1 °F 83.6 °F 71.1 °F 74% 29.73 in 10.0 mi South 12.7 mph - N/A   Clear
3:54 AM 80.1 °F 83.6 °F 71.1 °F 74% 29.75 in 10.0 mi South 8.1 mph - N/A   Clear
4:54 AM 78.8 °F - 69.8 °F 74% 29.79 in 10.0 mi South 10.4 mph - N/A   Clear
5:34 AM 78.1 °F - 64.9 °F 64% 29.85 in 10.0 mi NW 13.8 mph 27.6 mph N/A   Mostly Cloudy
5:54 AM 75.0 °F - 64.0 °F 69% 29.83 in 10.0 mi NNW 23.0 mph 31.1 mph 0.00 in   Overcast
6:06 AM 73.0 °F - 64.9 °F 76% 29.91 in 10.0 mi NW 23.0 mph 33.4 mph 0.00 in Rain , Thunderstorm Light Rain
6:13 AM 72.0 °F - 64.0 °F 76% 29.91 in 10.0 mi NW 18.4 mph 34.5 mph 0.00 in Rain , Thunderstorm Light Thunderstorms and Rain
6:26 AM 71.1 °F - 64.0 °F 78% 29.91 in 5.0 mi NNW 16.1 mph 31.1 mph 0.03 in Rain Rain
6:54 AM 70.0 °F - 62.1 °F 76% 29.84 in 10.0 mi North 15.0 mph - 0.04 in   Mostly Cloudy
7:54 AM 72.0 °F - 57.9 °F 61% 29.86 in 10.0 mi ENE 10.4 mph - N/A   Scattered Clouds
8:54 AM 75.0 °F - 60.1 °F 60% 29.85 in 10.0 mi East 4.6 mph - 0.00 in   Clear
10:54 AM 81.0 °F 81.9 °F 62.1 °F 52% 29.86 in 10.0 mi NW 10.4 mph - N/A   Clear
11:54 AM 80.1 °F 81.2 °F 62.1 °F 54% 29.88 in 10.0 mi West 5.8 mph - N/A   Clear
12:54 PM 79.0 °F - 63.0 °F 58% 29.89 in 10.0 mi WNW 9.2 mph - N/A   Clear
1:54 PM 79.0 °F - 63.0 °F 58% 29.89 in 10.0 mi Variable 6.9 mph - N/A   Mostly Cloudy
2:54 PM 82.9 °F 84.6 °F 64.9 °F 54% 29.88 in 10.0 mi WNW 9.2 mph - N/A   Clear
3:54 PM 84.9 °F 86.1 °F 64.0 °F 49% 29.88 in 10.0 mi WNW 10.4 mph - N/A   Partly Cloudy
4:54 PM 87.1 °F 87.8 °F 63.0 °F 44% 29.88 in 10.0 mi WNW 9.2 mph - N/A   Partly Cloudy
5:54 PM 87.1 °F 86.7 °F 60.1 °F 40% 29.89 in 10.0 mi WNW 9.2 mph - N/A   Clear
6:54 PM 87.1 °F 86.7 °F 60.1 °F 40% 29.90 in 10.0 mi WNW 8.1 mph - N/A   Clear
7:54 PM 84.9 °F 85.0 °F 61.0 °F 44% 29.92 in 10.0 mi NW 5.8 mph - N/A   Clear
8:54 PM 82.9 °F 83.3 °F 61.0 °F 47% 29.93 in 10.0 mi WNW 4.6 mph - N/A   Clear
9:54 PM 75.9 °F - 64.0 °F 67% 29.97 in 10.0 mi North 4.6 mph - N/A   Clear
10:54 PM 73.9 °F - 64.0 °F 71% 29.98 in 10.0 mi Calm Calm - N/A   Clear
11:54 PM 69.1 °F - 63.0 °F 81% 29.98 in 10.0 mi Calm Calm - N/A   Clear